Weather History for VTSP - November, 2014

Change the Weather History Date:

Monday, November 3, 2014

  Actual Average Record
Temperature  
Mean Temperature 79 °F -  
Max Temperature 86 °F 88 °F 93 °F (1998)
Min Temperature 72 °F 75 °F 72 °F (2013)
Cooling Degree Days 14    
Growing Degree Days 29 (Base 50)    
Moisture  
Dew Point 75 °F    
Average Humidity 86    
Maximum Humidity 100    
Minimum Humidity 74    
Precipitation  
Precipitation 1.18 in 0.23 in - ()
Sea Level Pressure  
Sea Level Pressure 29.85 in    
Wind  
Wind Speed 3 mph ()    
Max Wind Speed 12 mph    
Max Gust Speed -    
Visibility 4.2 miles    
Events Rain    
Averages and records for this station are not official NWS values.
T = Trace of Precipitation, MM = Missing Value Source: Averaged Metar Reports

Daily Weather History Graph

Daily Weather History Graph

Search for Another Location

Airport or City:

Trip Planner

Search our weather history database for the weather conditions in past years. The results will help you decide how hot, cold, wet, or windy it might be!

Date:

Astronomy

Nov. 03, 2014 Rise Set
Actual Time 6:15 AM ICT 6:04 PM ICT
Civil Twilight 5:53 AM ICT 6:26 PM ICT
Nautical Twilight 5:28 AM ICT 6:51 PM ICT
Astronomical Twilight 5:04 AM ICT 7:16 PM ICT
Moon 3:10 PM ICT (11/3) 2:41 AM ICT (11/3)
Length of Visible Light 12h 32m
Length of Day
11h 49m
Waxing Gibbous, 83% of the Moon is Illuminated
Nov 3
Waxing Gibbous
Nov 7
Full
Nov 14
Last Quarter
Nov 22
New
Nov 29
First Quarter

Hourly Weather History & Observations

Time (ICT) Temp. Heat Index Dew Point Humidity Pressure Visibility Wind Dir Wind Speed Gust Speed Precip Events Conditions
12:00 AM 78.8 °F - 75.2 °F 89% 29.86 in 6.2 mi Calm Calm - N/A   Mostly Cloudy
12:30 AM 78.8 °F - 75.2 °F 89% 29.83 in 6.2 mi Calm Calm - N/A   Mostly Cloudy
1:00 AM 79 °F - 76 °F 88% 29.78 in 6 mi Calm Calm - -   Scattered Clouds
1:00 AM 78.8 °F - 75.2 °F 89% 29.83 in 6.2 mi Calm Calm - N/A   Mostly Cloudy
2:00 AM 78.8 °F - 75.2 °F 89% 29.80 in 6.2 mi Calm Calm - N/A   Mostly Cloudy
2:30 AM 78.8 °F - 75.2 °F 89% 29.80 in 3.1 mi Calm Calm - N/A Rain Light Rain
3:00 AM 75.2 °F - 73.4 °F 94% 29.80 in 3.1 mi ESE 5.8 mph - N/A Rain Light Rain
3:30 AM 75.2 °F - 73.4 °F 94% 29.80 in 3.1 mi ENE 5.8 mph - N/A Rain Light Rain
4:00 AM 76 °F - 76 °F 100% 29.75 in 3 mi Calm Calm - - Rain Light Rain
4:00 AM 75.2 °F - 73.4 °F 94% 29.80 in 1.2 mi SE 10.4 mph - N/A Rain Heavy Rain
4:30 AM 75.2 °F - 73.4 °F 94% 29.80 in 3.1 mi ENE 5.8 mph - N/A Rain Light Rain
5:30 AM 75.2 °F - 73.4 °F 94% 29.83 in 5.0 mi ESE 3.5 mph - N/A   Mostly Cloudy
6:00 AM 75.2 °F - 73.4 °F 94% 29.83 in 5.0 mi Calm Calm - N/A   Mostly Cloudy
6:30 AM 77.0 °F - 73.4 °F 89% 29.83 in 5.0 mi Calm Calm - N/A   Mostly Cloudy
7:00 AM 76 °F - 75 °F 97% 29.79 in 6 mi Calm Calm - -   Partly Cloudy
7:00 AM 77.0 °F - 73.4 °F 89% 29.86 in 5.0 mi SSE 5.8 mph - N/A   Mostly Cloudy
7:30 AM 78.8 °F - 75.2 °F 89% 29.86 in 5.0 mi South 5.8 mph - N/A   Mostly Cloudy
8:00 AM 78.8 °F - 75.2 °F 89% 29.89 in 4.3 mi ESE 5.8 mph - N/A Rain Rain
8:30 AM 80.6 °F 87.1 °F 77.0 °F 89% 29.89 in 5.0 mi Variable 3.5 mph - N/A   Mostly Cloudy
9:00 AM 80.6 °F 87.1 °F 77.0 °F 89% 29.92 in 5.0 mi SSE 3.5 mph - N/A   Mostly Cloudy
9:30 AM 82.4 °F 89.5 °F 75.2 °F 79% 29.92 in 5.6 mi ESE 3.5 mph - N/A   Mostly Cloudy
10:00 AM 83 °F - 77 °F 78% 29.88 in 6 mi Calm Calm - -   Partly Cloudy
10:00 AM 82.4 °F 89.5 °F 75.2 °F 79% 29.92 in 5.6 mi Variable 2.3 mph - N/A   Mostly Cloudy
10:30 AM 84.2 °F 92.3 °F 75.2 °F 74% 29.92 in 6.2 mi Variable 4.6 mph - N/A   Mostly Cloudy
11:00 AM 84.2 °F 92.3 °F 75.2 °F 74% 29.89 in 6.2 mi Variable 4.6 mph - N/A   Mostly Cloudy
11:30 AM 82.4 °F 89.5 °F 75.2 °F 79% 29.86 in 4.3 mi ESE 9.2 mph - N/A   Mostly Cloudy
12:00 PM 84.2 °F 94.1 °F 77.0 °F 79% 29.86 in 5.6 mi East 6.9 mph - N/A   Mostly Cloudy
12:30 PM 84.2 °F 92.3 °F 75.2 °F 74% 29.83 in 3.1 mi East 9.2 mph - N/A Rain Rain
1:00 PM 83 °F - 77 °F 77% 29.82 in 4 mi West 8.1 mph - -   Partly Cloudy
1:00 PM - - - N/A% 29.86 in 3.1 mi Variable 4.6 mph - N/A Rain Rain
1:30 PM 82.4 °F 88.2 °F 73.4 °F 74% 29.86 in 3.1 mi West 9.2 mph - N/A Rain Rain
2:00 PM 80.6 °F 85.4 °F 73.4 °F 79% 29.83 in 1.9 mi WSW 11.5 mph - N/A Rain Rain
2:30 PM 80.6 °F 84.6 °F 71.6 °F 74% 29.83 in 4.3 mi Variable 6.9 mph - N/A   Mostly Cloudy
3:00 PM 80.6 °F 86.2 °F 75.2 °F 84% 29.83 in 2.5 mi West 10.4 mph - N/A Rain Rain
3:30 PM 78.8 °F - 73.4 °F 83% 29.83 in 3.1 mi West 9.2 mph - N/A Rain Rain
4:00 PM 79 °F - 76 °F 89% 29.79 in 3 mi Calm Calm - - Rain Light Rain
4:00 PM 78.8 °F - 73.4 °F 83% 29.83 in 3.7 mi Variable 4.6 mph - N/A Rain Light Rain
4:30 PM 77.0 °F - 73.4 °F 89% 29.83 in 4.3 mi Variable 3.5 mph - N/A Rain Light Rain
5:00 PM 78.8 °F - 73.4 °F 83% 29.83 in 4.3 mi Variable 2.3 mph - N/A Rain Light Rain
5:30 PM 78.8 °F - 73.4 °F 83% 29.83 in 5.0 mi WSW 4.6 mph - N/A   Mostly Cloudy
6:00 PM 78.8 °F - 75.2 °F 89% 29.83 in 4.3 mi Variable 1.2 mph - N/A Rain Light Rain
6:30 PM 77.0 °F - 73.4 °F 89% 29.86 in 3.1 mi Variable 1.2 mph - N/A Rain Rain
7:00 PM 78 °F - 76 °F 94% 29.83 in 2 mi Calm Calm - - Rain Light Rain
7:00 PM 77.0 °F - 73.4 °F 89% 29.89 in 0.9 mi Variable 6.9 mph - N/A Rain Heavy Rain
7:30 PM 77.0 °F - 73.4 °F 89% 29.89 in 4.3 mi Variable 1.2 mph - N/A Rain Light Rain
8:00 PM 77.0 °F - 73.4 °F 89% 29.89 in 4.3 mi Variable 2.3 mph - N/A Rain Light Rain
8:30 PM 78.8 °F - 73.4 °F 83% 29.92 in 3.1 mi SW 4.6 mph - N/A Rain Rain
9:30 PM 78.8 °F - 73.4 °F 83% 29.92 in 4.3 mi Variable 2.3 mph - N/A Rain Light Rain
10:00 PM 81 °F - 76 °F 81% 29.89 in 4 mi Calm Calm - - Rain Light Rain
10:00 PM 78.8 °F - 73.4 °F 83% 29.92 in 4.3 mi WSW 8.1 mph - N/A   Mostly Cloudy
10:30 PM 78.8 °F - 73.4 °F 83% - 4.3 mi SW 4.6 mph - N/A   Mostly Cloudy
11:00 PM 78.8 °F - 75.2 °F 89% 29.92 in 4.3 mi South 3.5 mph - N/A   Mostly Cloudy